Skagway, AK

6:44 AM AKST on January 17, 2017 (GMT -0900)
Skagway

Weather History for PAGY - March, 2014

Change the Weather History Date:

Saturday, March 15, 2014

  Actual Average Record
Temperature  
Mean Temperature 40 °F -  
Max Temperature 45 °F 35 °F 54 °F (1989)
Min Temperature 34 °F 24 °F 7 °F (2006)
Degree Days  
Heating Degree Days 26    
Moisture  
Dew Point 25 °F    
Average Humidity 59    
Maximum Humidity 76    
Minimum Humidity 34    
Precipitation  
Precipitation 0.00 in - - ()
Sea Level Pressure  
Sea Level Pressure 29.63 in    
Wind  
Wind Speed 9 mph (SW)    
Max Wind Speed 22 mph    
Max Gust Speed 30 mph    
Visibility 10 miles    
Events      
Averages and records for this station are not official NWS values.
T = Trace of Precipitation, MM = Missing Value Source: NWS Daily Summary

Daily Weather History Graph

Daily Weather History Graph

Search for Another Location

Airport or City:

Trip Planner

Search our weather history database for the weather conditions in past years. The results will help you decide how hot, cold, wet, or windy it might be!

Date:

Astronomy

Mar. 15, 2014 Rise Set
Actual Time 7:17 AM AKDT 7:04 PM AKDT
Civil Twilight 6:36 AM AKDT 7:45 PM AKDT
Nautical Twilight 5:48 AM AKDT 8:33 PM AKDT
Astronomical Twilight 4:57 AM AKDT 9:25 PM AKDT
Moon 6:30 PM AKDT (3/15) 6:40 AM AKDT (3/15)
Length of Visible Light 13h 08m
Length of Day
11h 47m
Waxing Gibbous, 99% of the Moon is Illuminated
Mar 15
Waxing Gibbous
Mar 16
Full
Mar 23
Last Quarter
Mar 30
New
Apr 7
First Quarter

Hourly Weather History & Observations

Time (AKDT) Temp. Windchill Dew Point Humidity Pressure Visibility Wind Dir Wind Speed Gust Speed Precip Events Conditions
12:53 AM 39.9 °F 30.5 °F 26.1 °F 58% 29.79 in 10.0 mi SSW 19.6 mph 29.9 mph N/A   Overcast
1:53 AM 37.9 °F 29.6 °F 27.0 °F 65% 29.81 in 10.0 mi SSW 13.8 mph - N/A   Overcast
2:53 AM 39.0 °F 28.8 °F 27.0 °F 62% 29.80 in 10.0 mi SSW 21.9 mph 28.8 mph N/A   Mostly Cloudy
3:53 AM 37.9 °F 30.9 °F 26.1 °F 62% 29.81 in 10.0 mi South 10.4 mph - N/A   Mostly Cloudy
4:53 AM 37.9 °F 32.7 °F 25.0 °F 60% 29.79 in 10.0 mi South 6.9 mph - N/A   Mostly Cloudy
5:53 AM 34.0 °F 31.0 °F 25.0 °F 70% 29.78 in 10.0 mi ENE 3.5 mph - N/A   Overcast
6:53 AM 36.0 °F - 28.0 °F 73% 29.74 in 10.0 mi Calm Calm - N/A   Overcast
7:53 AM 36.0 °F 32.1 °F 28.0 °F 73% 29.71 in 10.0 mi WNW 4.6 mph - N/A   Scattered Clouds
8:15 AM 36.0 °F 32.1 °F 28.0 °F 73% 29.70 in 10.0 mi Variable 4.6 mph - N/A   Mostly Cloudy
8:24 AM 36.0 °F 32.1 °F 28.0 °F 73% 29.68 in 10.0 mi West 4.6 mph - N/A   Mostly Cloudy
8:53 AM 36.0 °F - 28.9 °F 76% 29.69 in 10.0 mi Calm Calm - N/A   Overcast
9:53 AM 37.0 °F - 28.9 °F 73% 29.65 in 10.0 mi Calm Calm - N/A   Overcast
10:53 AM 39.0 °F - 28.0 °F 65% 29.62 in 10.0 mi Calm Calm - N/A   Clear
11:53 AM 39.0 °F 36.8 °F 28.9 °F 67% 29.59 in 10.0 mi SSE 3.5 mph - N/A   Scattered Clouds
12:53 PM 42.1 °F 39.2 °F 21.9 °F 45% 29.57 in 10.0 mi Variable 4.6 mph - N/A   Scattered Clouds
1:53 PM 43.0 °F 38.2 °F 19.0 °F 38% 29.54 in 10.0 mi NE 8.1 mph - N/A   Clear
2:53 PM 44.1 °F 41.5 °F 19.0 °F 37% 29.52 in 10.0 mi Variable 4.6 mph - N/A   Overcast
3:53 PM 45.0 °F 40.1 °F 18.0 °F 34% 29.49 in 10.0 mi NNE 9.2 mph - N/A   Overcast
4:53 PM 45.0 °F 42.6 °F 18.0 °F 34% 29.49 in 10.0 mi Variable 4.6 mph - N/A   Overcast
5:53 PM 43.0 °F 38.8 °F 21.0 °F 42% 29.49 in 10.0 mi NNE 6.9 mph - N/A   Overcast
6:53 PM 42.1 °F 38.4 °F 21.9 °F 45% 29.49 in 10.0 mi NNE 5.8 mph - N/A   Overcast
7:53 PM 39.9 °F 35.8 °F 25.0 °F 55% 29.51 in 10.0 mi WSW 5.8 mph - N/A   Overcast
8:53 PM 37.9 °F - 26.1 °F 62% 29.51 in 10.0 mi Calm Calm - N/A   Overcast
9:53 PM 37.9 °F - 28.0 °F 68% 29.52 in 10.0 mi Calm Calm - N/A   Overcast
10:53 PM 37.0 °F - 27.0 °F 67% 29.52 in 10.0 mi Calm Calm - N/A   Overcast
11:53 PM 36.0 °F - 26.1 °F 67% 29.52 in 10.0 mi Calm Calm - N/A   Overcast